Retour au catalogue

O3B FM10

ActifCommunicationsMEO
NORAD 40348·PAYLOAD·🇱🇺 Luxembourg

Lancé Dec 18, 2014 depuis Guiana Space Centre

Loading…

Prochains Passages (prochaines 24 heures)

TLE

FraisSource: CelesTrak SupGP

Époque: Sep 14, 2026, 15:00 UTC

1 40348C 14083A   26257.62500000  .00000000  00000+0  00000+0 0  2575
2 40348   0.0495 344.9050 0002689 187.4953  33.9032  5.00115887    12

Suivez O3B FM10 en temps réel avec AllMySat

Download on the App Store